K2MST Weather Reports


time (UTC)temp
C
wind
direction
speed
KPH
gust
KPH
rain 1hr
cm
rain 24hr
cm
rain mn
cm
humidity
%
barometer
mb
20260506112039 7 338 1.6 6.4 0.28 1.50 0.64 90 1006.7
20260506111019 7 338 3.2 6.4 0.25 1.45 0.58 90 1006.9
20260506110019 7 23 3.2 8.0 0.18 1.37 0.51 89 1006.6
20260506105018 7 23 1.6 3.2 0.15 1.32 0.46 89 1006.7
20260506104018 7 338 4.8 8.0 0.13 1.27 0.41 89 1006.5
20260506103039 7 45 1.6 6.4 0.13 1.24 0.38 89 1006.5
20260506102019 7 68 1.6 6.4 0.13 1.22 0.36 89 1006.4
20260506101038 7 45 1.6 6.4 0.13 1.19 0.33 88 1006.5
20260506100018 7 90 1.6 4.8 0.15 1.19 0.33 89 1006.6
20260506095059 7 45 8.0 14.5 0.13 1.17 0.30 88 1006.5
20260506094039 7 338 3.2 8.0 0.13 1.14 0.28 89 1006.7
20260506093018 7 23 4.8 9.7 0.13 1.12 0.25 88 1007.0
20260506092018 7 23 6.4 11.3 0.13 1.09 0.23 88 1007.1
20260506091018 7 23 6.4 16.1 0.13 1.07 0.20 88 1007.1
20260506090059 7 23 6.4 17.7 0.10 1.04 0.18 87 1007.2
20260506085018 7 45 8.0 17.7 0.13 1.04 0.18 88 1007.1
20260506084038 7 23 8.0 19.3 0.10 1.02 0.15 88 1007.1
20260506083018 8 23 9.7 19.3 0.08 0.99 0.13 88 1007.1
20260506082018 8 23 11.3 20.9 0.05 0.97 0.10 88 1007.1
20260506081038 9 23 6.4 16.1 0.03 0.94 0.08 89 1006.9
20260506073018 9 68 3.2 6.4 0.00 0.97 0.05 88 1006.6
20260506072018 9 68 4.8 9.7 0.00 0.97 0.05 87 1006.5
20260506071018 9 45 1.6 6.4 0.00 0.97 0.05 88 1006.7
20260506062018 9 90 3.2 11.3 0.05 0.97 0.05 88 1007.3
20260506061017 10 113 3.2 8.0 0.05 0.97 0.05 87 1007.2
20260506051017 9 68 4.8 8.0 0.00 0.91 0.00 88 1008.0
20260506045037 9 90 3.2 8.0 0.00 0.91 0.00 89 1008.4
20260506044017 9 68 3.2 8.0 0.03 0.91 0.00 89 1008.1
20260506043037 9 90 1.6 8.0 0.05 0.91 0.00 89 1008.3
20260506042017 9 0.0 3.2 0.08 0.91 0.00 89 1008.6
20260506041017 9 68 4.8 11.3 0.10 0.91 0.00 89 1008.2
20260506040017 9 90 3.2 6.4 0.13 0.91 0.91 89 1008.5
20260506035018 9 45 4.8 14.5 0.15 0.91 0.91 89 1008.3
20260506034017 9 90 3.2 9.7 0.15 0.89 0.89 89 1009.0
20260506033017 9 23 1.6 4.8 0.15 0.86 0.86 89 1008.8
20260506032017 9 0.0 3.2 0.18 0.84 0.84 89 1008.6
20260506031037 9 0.0 3.2 0.23 0.81 0.81 89 1008.9
20260506030017 9 338 1.6 4.8 0.23 0.79 0.79 89 1008.5
20260506025017 9 338 1.6 6.4 0.25 0.76 0.76 88 1008.6
20260506024017 10 315 1.6 4.8 0.23 0.74 0.74 88 1008.7
20260506023037 10 315 1.6 3.2 0.20 0.71 0.71 88 1008.9
20260506022017 10 338 3.2 6.4 0.18 0.66 0.66 87 1008.8
20260506021017 10 293 1.6 4.8 0.10 0.58 0.58 88 1009.3
20260506020017 10 23 3.2 8.0 0.13 0.56 0.56 87 1008.4
20260506015017 10 338 3.2 4.8 0.08 0.51 0.51 87 1008.1
20260506014017 10 23 4.8 9.7 0.08 0.51 0.51 86 1008.1
20260506013017 10 23 4.8 8.0 0.10 0.51 0.51 85 1008.6
20260506012017 10 338 6.4 9.7 0.08 0.48 0.48 84 1008.5
20260506011017 10 338 4.8 11.3 0.08 0.48 0.46 82 1008.5
20260506010022 10 293 4.8 9.7 0.03 0.43 0.43 81 1008.4
20260506005019 11 338 8.0 16.1 0.03 0.43 0.43 78 1008.1
20260506004019 12 338 11.3 22.5 0.03 0.43 0.43 71 1008.2
20260506003019 13 338 12.9 20.9 0.00 0.41 0.41 67 1008.1
20260506002019 13 338 8.0 16.1 0.00 0.41 0.41 64 1007.4
20260506001019 14 338 8.0 24.1 0.00 0.41 0.41 64 1007.4
20260506000019 15 338 9.7 20.9 0.00 0.41 0.41 64 1007.1
20260505235019 15 315 11.3 20.9 0.00 0.41 0.41 63 1006.7
20260505234018 15 338 9.7 19.3 0.00 0.41 0.41 63 1006.3
20260505233018 16 315 9.7 19.3 0.00 0.41 0.41 64 1006.1
20260505232018 16 338 9.7 20.9 0.00 0.41 0.41 63 1005.8
20260505231018 16 338 11.3 22.5 0.00 0.41 0.41 62 1005.5
20260505230018 17 338 6.4 16.1 0.00 0.41 0.41 66 1005.2
20260505225018 17 338 6.4 11.3 0.00 0.41 0.41 67 1004.9
20260505224019 17 338 8.0 14.5 0.00 0.41 0.41 67 1004.8
20260505223018 17 338 6.4 9.7 0.00 0.41 0.41 67 1004.5
20260505222018 17 338 8.0 16.1 0.00 0.41 0.41 68 1003.9
20260505221018 18 338 12.9 24.1 0.10 0.41 0.41 67 1004.1
20260505220018 18 338 8.0 17.7 0.13 0.41 0.41 70 1004.0
20260505215038 18 338 8.0 19.3 0.13 0.41 0.41 71 1003.7
20260505214018 18 338 6.4 14.5 0.18 0.41 0.41 77 1003.8
20260505213018 18 225 4.8 11.3 0.18 0.41 0.41 80 1003.5
20260505212018 17 225 8.0 19.3 0.18 0.41 0.41 80 1003.4
20260505211018 18 248 6.4 19.3 0.08 0.30 0.30 79 1003.4
20260505210018 19 180 12.9 27.4 0.05 0.28 0.28 74 1003.3
20260505205018 21 180 14.5 30.6 0.05 0.28 0.28 68 1003.2
20260505204038 21 180 9.7 19.3 0.00 0.23 0.23 64 1002.9
20260505203018 21 225 4.8 14.5 0.00 0.23 0.23 63 1002.6
20260505202018 21 225 6.4 14.5 0.00 0.23 0.23 63 1002.8
20260505201017 22 270 4.8 11.3 0.00 0.23 0.23 63 1002.9
20260505200017 21 225 6.4 17.7 0.00 0.23 0.23 63 1002.9
20260505195018 21 225 6.4 14.5 0.00 0.23 0.23 65 1003.0
20260505194017 22 248 8.0 16.1 0.00 0.23 0.23 62 1003.0
20260505193018 21 203 4.8 8.0 0.05 0.23 0.23 69 1002.9
20260505192017 20 180 6.4 11.3 0.08 0.23 0.23 72 1003.2
20260505191017 18 203 4.8 9.7 0.15 0.23 0.23 77 1003.2
20260505190017 18 225 1.6 4.8 0.18 0.23 0.23 78 1003.3
20260505185018 17 248 1.6 4.8 0.18 0.23 0.23 79 1003.3
20260505184017 17 180 6.4 16.1 0.18 0.23 0.23 78 1003.3
20260505183017 17 248 11.3 22.5 0.13 0.18 0.18 76 1003.9
20260505182038 18 248 9.7 27.4 0.10 0.15 0.15 72 1003.8
20260505181017 20 293 12.9 24.1 0.03 0.08 0.08 66 1003.3
20260505180017 21 293 9.7 22.5 0.00 0.05 0.05 57 1002.8
20260505175017 21 248 8.0 14.5 0.00 0.05 0.05 57 1002.1
20260505174017 21 270 11.3 24.1 0.00 0.05 0.05 57 1002.5
20260505173017 22 225 9.7 19.3 0.00 0.05 0.05 53 1002.4
20260505172017 23 225 20.9 35.4 0.00 0.05 0.05 48 1002.4
20260505171017 23 225 17.7 30.6 0.00 0.05 0.05 48 1002.1
20260505170017 23 225 12.9 25.7 0.00 0.05 0.05 47 1002.2
20260505165017 23 203 8.0 20.9 0.00 0.05 0.05 48 1002.3
20260505164017 23 225 12.9 22.5 0.00 0.05 0.05 48 1001.9
20260505163037 23 248 16.1 29.0 0.00 0.05 0.05 48 1001.9
20260505162017 23 225 19.3 29.0 0.00 0.05 0.05 49 1001.8
20260505161017 23 225 11.3 25.7 0.00 0.05 0.05 49 1001.7
20260505153019 23 248 20.9 35.4 0.00 0.05 0.05 48 1002.3
20260505152019 23 203 19.3 35.4 0.00 0.05 0.05 49 1002.1
20260505151019 23 248 16.1 25.7 0.00 0.05 0.05 49 1002.1
20260505125018 21 203 20.9 48.3 0.00 0.05 0.05 52 1002.1
20260505124018 21 180 19.3 37.0 0.00 0.05 0.05 53 1002.1
20260505123018 21 203 20.9 41.8 0.00 0.05 0.05 54 1002.0
20260505122018 21 180 22.5 45.1 0.00 0.05 0.05 54 1002.1
20260505121038 21 203 16.1 30.6 0.00 0.05 0.05 55 1002.1
20260505120018 20 203 22.5 43.5 0.00 0.05 0.05 56 1001.9
20260505115058 20 180 20.9 38.6 0.00 0.05 0.05 56 1001.9
20260505114018 20 158 16.1 35.4 0.00 0.05 0.05 57 1001.9
20260505113018 19 203 12.9 25.7 0.00 0.05 0.05 58 1001.9